Regional Weather Roundup
Issued by NWS

Home | Current Version | Previous Version | Graphics & Text | Print | Product List | Glossary On
Versions: 1 2 3 4 5 6 7 8 9 10 11 12 13 14 15 16 17 18 19 20 21 22 23 24 25 26
000
ASUS45 KTFX 261410
RWRMT
MONTANA REGIONAL WEATHER ROUNDUP
NATIONAL WEATHER SERVICE GREAT FALLS MT
800 AM MDT THU MAY 26 2016

NOTE: "FAIR" INDICATES FEW OR NO CLOUDS BELOW 12000 FEET WITH NO
SIGNIFICANT WEATHER AND/OR OBSTRUCTIONS TO VISIBILITY.

MTZ001>007-043-261500-
WEST OF THE DIVIDE

CITY           SKY/WX    TMP DP  RH WIND       PRES   REMARKS
KALISPELL      CLOUDY    51  50  96 CALM      29.99S
MISSOULA       CLOUDY    51  47  86 CALM      30.05R
BUTTE          CLOUDY    42  36  79 CALM      30.07R
MULLAN PASS    FOG       40  39  97 CALM      30.07S VSB 1/4
ANACONDA         N/A     52  39  62 N5        30.04F
DEER LODGE       N/A     48  46  93 CALM      30.06S
EUREKA           N/A     55  46  71 CALM      29.97F
HAMILTON         N/A     50  39  66 S8        30.05S
LIBBY            N/A     50  46  87 CALM      30.00S
$$

MTZ008-052>055-261500-
SOUTHWEST MONTANA

CITY           SKY/WX    TMP DP  RH WIND       PRES   REMARKS
BOZEMAN        CLOUDY    52  41  66 CALM      30.02S
DILLON         SUNNY     48  36  63 SW9       30.05S
ENNIS          CLOUDY    46  39  76 CALM      30.11S
$$

MTZ009-010-012-014-046-048-049-054-261500-
EAST SLOPES AND CENTRAL MONTANA

CITY           SKY/WX    TMP DP  RH WIND       PRES   REMARKS
CUT BANK       CLOUDY    50  48  93 NW7       29.96S
GREAT FALLS    CLOUDY    50  44  80 W9        29.97R
MALMSTROM AFB  CLOUDY    51  46  83 W8        29.97R
HELENA         CLOUDY    52  46  80 CALM      30.00S
CHOTEAU          N/A     50  48  93 CALM      29.99R
$$

MTZ011-013-016-021-045-047-050-051-261500-
NORTH CENTRAL MONTANA

CITY           SKY/WX    TMP DP  RH WIND       PRES   REMARKS
HAVRE            N/A    N/A N/A N/A MISG      29.94R
LEWISTOWN      CLOUDY    51  43  74 W7        29.95R
N BAR RANCH      N/A     52  43  71 NW12      29.95F
CHINOOK          N/A     48  46  93 W7        29.93S
$$

MTZ017>020-022>027-061-062-261500-
NORTHEAST MONTANA

CITY           SKY/WX    TMP DP  RH WIND       PRES   REMARKS
GLASGOW        CLOUDY    49  46  90 W7        29.85S
JORDAN           N/A     51  47  86 W9        29.87S
SIDNEY         PTSUNNY   55  49  80 W7        29.82S
WOLF POINT     CLOUDY    53  47  79 W9        29.83F
$$

MTZ028>42-056>058-261500-
SOUTHCENTRAL AND SOUTHEAST MONTANA

CITY           SKY/WX    TMP DP  RH WIND       PRES   REMARKS
BAKER          MOSUNNY   54  45  71 W13       29.87S
BILLINGS       PTSUNNY   53  43  68 SW5       29.95R
LIVINGSTON     CLOUDY    54  39  57 W14       29.99F
MILES CITY     CLOUDY    53  46  77 W7        29.88R
FORSYTH          N/A     52  48  87 SW9       29.90R
$$

REGIONAL REPORTS...DAKOTAS

CITY           SKY/WX    TMP DP  RH WIND       PRES   REMARKS
WILLISTON      CLOUDY    50  48  93 W7        29.81F
MINOT          CLOUDY    58  55  90 W10       29.77S FOG
DICKINSON      CLOUDY    52  46  80 W12       29.83R
BEACH            N/A     55  50  82 NW10      29.88R
CROSBY         CLOUDY    54  54 100 E3        29.81S FOG
WATFORD CITY   CLOUDY    48  48 100 NW5       29.82S
BISMARCK       SUNNY     56  48  74 W7        29.83S
GRAND FORKS    CLOUDY    61  56  83 W13       29.72F
FARGO          PTSUNNY   60  56  86 SW8       29.76R
BUFFALO SD       N/A     56  44  64 SW12      29.82F
RAPID CITY     SUNNY     58  46  64 NW5       29.91S
$$

REGIONAL REPORTS...WYOMING/IDAHO/WASHINGTON

CITY           SKY/WX    TMP DP  RH WIND       PRES   REMARKS
GILLETTE       CLOUDY    51  41  68 W13       29.96R
SHERIDAN       SUNNY     55  41  59 E5        29.95S
BUFFALO WY       N/A    N/A N/A N/A MISG      29.98R
CODY           PTSUNNY   48  43  81 CALM      29.99S
YELLOWSTONE LA   N/A     35  33  92 CALM      30.13R
IDAHO FALLS    MOSUNNY   44  41  89 N3        30.06R
SALMON         SUNNY     43  36  75 CALM      30.08S
BOISE          SUNNY     51  42  71 W5        30.03R
SPOKANE        PTSUNNY   50  43  77 S13       30.04R
$$

REGIONAL REPORTS...ALBERTA

CITY           SKY/WX    TMP DP  RH WIND       PRES   REMARKS
EDMONTON       MOSUNNY   54  50  87 NW2       29.89R
CALGARY        PTSUNNY   52  46  82 NW2       29.95R
LETHBRIDGE     PTSUNNY   52  48  87 SW3       29.93F
MEDICINE HAT   MOSUNNY   50  46  87 SE5       29.93S
WATERTON GATE    N/A     54  43  66 SW14G21     N/A
CARDSTON         N/A     52  48  87 SE3         N/A
MILK RIVER       N/A     52  46  82 NW10        N/A
ONEFOUR          N/A     50  46  87 NW8         N/A
$$

REGIONAL REPORTS...SASKATCHEWAN

CITY           SKY/WX    TMP DP  RH WIND       PRES   REMARKS
SWIFT CURRENT  LGT RAIN  52  50  93 N7        29.90S
REGINA         LGT RAIN  54  52  94 NE10G17   29.86R
SASKATOON      PTSUNNY   59  48  67 NE7       29.90S
CYPRESS HILLS    N/A     46  43  87 N6          N/A
VAL MARIE        N/A     50  48  93 N12         N/A
ROCKGLEN         N/A     50  48  93 N13         N/A
$$




USA.gov is the U.S. government's official web portal to all federal, state and local government web resources and services.